KCWF

Details ICAO KCWF
Name CHENNAULT INTL
Region United States
Timezone America/Chicago (UTC-5.0)
Plans Departing 10
Arriving 12
Stats Elevation 17 ft / 5 m (AMSL)
Location 30.210594° -93.143195°
Runways 1
Magnetic Variation 1.058° E
Sunrise 2018-05-23 11:15:56 UTC / 2018-05-23 06:15:56 Local
Sunset 2018-05-24 01:05:37 UTC / 2018-05-23 20:05:37 Local
Advertisement - Login to hide

Runways

ID Width Length Bearing (true) Bearing (mag) Surface Threshold Offset Overrun Length
15 200 ft / 61 m 10,711 ft / 3,265 m 154.45° 153.39° Concrete 0 ft / 0 m 765 ft / 233 m
33 200 ft / 61 m 10,711 ft / 3,265 m 334.45° 333.39° Concrete 0 ft / 0 m 200 ft / 61 m

Approach Navaids

Runway Type Ident Frequency Range Bearing (true) Bearing (mag) Slope Elevation
15 Localiser ICWF 110.70 MHz 18 nm / 33 km 154.50° 153.45° - 17 ft / 5 m (AMSL)
15 Glidescope ICWF 110.70 MHz 10 nm / 19 km 154.45° 153.39° 3.00° 15 ft / 5 m (AMSL)

Map

Weather


0- 5 10 15 20 25 30 35+ Temperature / ° C

Clouds and Precipitation
Forecast for 2018-05-24 00:00 UTC. Updated 5 hours ago

Ground ~20,000 ft ~40,000 ft Winds

METAR

KCWF 240435Z AUTO 06003KT 10SM SCT100 24/21 A3007 RMK AO2 LTG DSNT E T02370213

TAF

Not found

Frequencies

Recorded 120.00 MHz AWOS 3
Unicom 122.95 MHz UNICOM
Tower 124.20 MHz TWR
Unicom 124.20 MHz CTAF
Ground 121.65 MHz GND
Approach 119.80 MHz LAKE CHARLES APP/DEP
Warning: Do not use this data for real-world aviation or navigation. No guarantee of current accuracy is given.